When you browse on this site, cookies collect data to enhance your experience and personalize the content and advertising you see.
Visit our Privacy Policy to learn more. By continuing to use the site, you agree to this use of cookies and data.
  • In Austria
  • List of Countries
  • For 7 days
  • Water Temperature
  • Weather Map
  • News
  • Weather Widgets
  • user-avatar
    Login

    Hourly Weather Lisbon

    Today, 9 April, Thursday

    Time Temperature Precipitation Wind Pressure Humidity
    00:00 +16°C° 0 mm 2 mps 759 mmHg 88%
    01:00 +15°C° 0 mm 2 mps 759 mmHg 89%
    02:00 +15°C° 0 mm 2 mps 758 mmHg 89%
    03:00 +15°C° 1.1 mm 2 mps 758 mmHg 91%
    04:00 +14°C° 1.1 mm 3 mps 759 mmHg 92%
    05:00 +14°C° 1.1 mm 3 mps 759 mmHg 94%
    06:00 +14°C° 0.9 mm 3 mps 759 mmHg 93%
    07:00 +14°C° 0.9 mm 4 mps 759 mmHg 92%
    08:00 +15°C° 0.9 mm 4 mps 759 mmHg 91%
    09:00 +15°C° 0.2 mm 4 mps 759 mmHg 89%
    10:00 +15°C° 0.2 mm 4 mps 759 mmHg 86%
    11:00 +15°C° 0.2 mm 4 mps 760 mmHg 84%
    12:00 +17°C° 0.1 mm 4 mps 759 mmHg 82%
    13:00 +17°C° 0.1 mm 3 mps 759 mmHg 79%
    14:00 +18°C° 0.1 mm 3 mps 759 mmHg 77%
    15:00 +18°C° 0 mm 3 mps 759 mmHg 77%
    16:00 +18°C° 0 mm 3 mps 759 mmHg 76%
    17:00 +18°C° 0 mm 3 mps 760 mmHg 76%
    18:00 +17°C° 0 mm 2 mps 760 mmHg 80%
    19:00 +16°C° 0 mm 2 mps 760 mmHg 83%
    20:00 +15°C° 0 mm 1 mps 761 mmHg 86%
    21:00 +16°C° 0 mm 1 mps 761 mmHg 87%
    22:00 +16°C° 0 mm 1 mps 761 mmHg 87%
    23:00 +15°C° 0 mm 0 mps 761 mmHg 88%

    Tomorrow, 10 April, Friday

    Time Temperature Precipitation Wind Pressure Humidity
    00:00 +15°C° 0 mm 0 mps 761 mmHg 88%
    01:00 +16°C° 0 mm 1 mps 760 mmHg 89%
    02:00 +15°C° 0 mm 1 mps 760 mmHg 89%
    03:00 +15°C° 0 mm 1 mps 760 mmHg 90%
    04:00 +15°C° 0 mm 1 mps 761 mmHg 91%
    05:00 +15°C° 0 mm 1 mps 761 mmHg 91%
    06:00 +16°C° 0 mm 1 mps 761 mmHg 86%
    07:00 +19°C° 0 mm 1 mps 761 mmHg 81%
    08:00 +20°C° 0 mm 1 mps 762 mmHg 75%
    09:00 +20°C° 0 mm 2 mps 762 mmHg 72%
    10:00 +20°C° 0 mm 2 mps 761 mmHg 69%
    11:00 +21°C° 0 mm 3 mps 761 mmHg 65%
    12:00 +21°C° 0 mm 3 mps 761 mmHg 65%
    13:00 +21°C° 0 mm 4 mps 761 mmHg 64%
    14:00 +21°C° 0 mm 4 mps 761 mmHg 63%
    15:00 +20°C° 0 mm 4 mps 761 mmHg 66%
    16:00 +19°C° 0 mm 4 mps 761 mmHg 69%
    17:00 +19°C° 0 mm 4 mps 761 mmHg 73%
    18:00 +18°C° 0 mm 4 mps 761 mmHg 78%
    19:00 +16°C° 0 mm 3 mps 761 mmHg 83%
    20:00 +14°C° 0 mm 3 mps 762 mmHg 89%
    21:00 +14°C° 0 mm 3 mps 762 mmHg 90%
    22:00 +14°C° 0 mm 3 mps 762 mmHg 90%
    23:00 +13°C° 0 mm 3 mps 762 mmHg 91%

    Day after tomorrow, 11 April, Saturday

    Time Temperature Precipitation Wind Pressure Humidity
    00:00 +13°C° 0 mm 3 mps 761 mmHg 92%
    01:00 +13°C° 0 mm 3 mps 761 mmHg 93%
    02:00 +12°C° 0 mm 3 mps 761 mmHg 94%
    03:00 +12°C° 0 mm 3 mps 761 mmHg 94%
    04:00 +12°C° 0 mm 3 mps 761 mmHg 93%
    05:00 +12°C° 0 mm 3 mps 761 mmHg 93%
    06:00 +14°C° 0 mm 3 mps 761 mmHg 86%
    07:00 +15°C° 0 mm 4 mps 761 mmHg 80%
    08:00 +17°C° 0 mm 4 mps 761 mmHg 73%
    09:00 +17°C° 0 mm 5 mps 761 mmHg 68%
    10:00 +19°C° 0 mm 5 mps 761 mmHg 63%
    11:00 +20°C° 0 mm 5 mps 761 mmHg 57%
    12:00 +20°C° 0 mm 5 mps 761 mmHg 57%
    13:00 +20°C° 0 mm 6 mps 760 mmHg 57%
    14:00 +20°C° 0 mm 6 mps 759 mmHg 56%
    15:00 +19°C° 0 mm 6 mps 759 mmHg 60%
    16:00 +17°C° 0 mm 6 mps 759 mmHg 64%
    17:00 +16°C° 0 mm 6 mps 759 mmHg 67%
    18:00 +15°C° 0 mm 6 mps 760 mmHg 74%
    19:00 +14°C° 0 mm 5 mps 760 mmHg 80%
    20:00 +13°C° 0 mm 5 mps 760 mmHg 87%
    21:00 +13°C° 0 mm 5 mps 760 mmHg 88%
    22:00 +13°C° 0 mm 5 mps 760 mmHg 90%
    23:00 +13°C° 0 mm 5 mps 760 mmHg 91%

    12 April, Sunday

    Time Temperature Precipitation Wind Pressure Humidity
    00:00 +12°C° 0 mm 5 mps 760 mmHg 92%
    01:00 +12°C° 0 mm 4 mps 759 mmHg 92%
    02:00 +12°C° 0 mm 4 mps 759 mmHg 92%
    03:00 +12°C° 0 mm 3 mps 759 mmHg 93%
    04:00 +12°C° 0 mm 3 mps 759 mmHg 93%
    05:00 +12°C° 0 mm 2 mps 758 mmHg 94%
    06:00 +14°C° 0 mm 2 mps 758 mmHg 88%
    07:00 +16°C° 0 mm 2 mps 758 mmHg 81%
    08:00 +17°C° 0 mm 2 mps 758 mmHg 74%
    09:00 +18°C° 0.1 mm 3 mps 758 mmHg 72%
    10:00 +18°C° 0.1 mm 3 mps 758 mmHg 69%
    11:00 +19°C° 0.1 mm 4 mps 758 mmHg 66%
    12:00 +19°C° 0.1 mm 4 mps 758 mmHg 66%
    13:00 +19°C° 0.1 mm 5 mps 757 mmHg 65%
    14:00 +20°C° 0.1 mm 5 mps 757 mmHg 64%
    15:00 +19°C° 0 mm 5 mps 757 mmHg 67%
    16:00 +17°C° 0 mm 6 mps 756 mmHg 70%
    17:00 +16°C° 0 mm 6 mps 756 mmHg 73%
    18:00 +15°C° 0 mm 6 mps 756 mmHg 76%
    19:00 +15°C° 0 mm 6 mps 756 mmHg 80%
    20:00 +14°C° 0 mm 7 mps 757 mmHg 84%
    21:00 +13°C° 0 mm 6 mps 757 mmHg 83%
    22:00 +13°C° 0 mm 6 mps 756 mmHg 83%
    23:00 +13°C° 0 mm 6 mps 756 mmHg 82%

    13 April, Monday

    Time Temperature Precipitation Wind Pressure Humidity
    00:00 +12°C° 0 mm 5 mps 755 mmHg 84%
    01:00 +12°C° 0 mm 5 mps 755 mmHg 85%
    02:00 +12°C° 0 mm 5 mps 754 mmHg 86%
    03:00 +12°C° 0 mm 5 mps 754 mmHg 88%
    04:00 +12°C° 0 mm 4 mps 754 mmHg 90%
    05:00 +11°C° 0 mm 4 mps 754 mmHg 92%
    06:00 +12°C° 0.1 mm 4 mps 754 mmHg 86%
    07:00 +13°C° 0.1 mm 5 mps 754 mmHg 80%
    08:00 +14°C° 0.1 mm 5 mps 754 mmHg 74%
    09:00 +15°C° 0 mm 5 mps 754 mmHg 68%
    10:00 +15°C° 0 mm 5 mps 753 mmHg 62%
    11:00 +16°C° 0 mm 5 mps 753 mmHg 56%
    12:00 +16°C° 0 mm 5 mps 753 mmHg 55%
    13:00 +16°C° 0 mm 5 mps 753 mmHg 53%
    14:00 +16°C° 0 mm 5 mps 753 mmHg 52%
    15:00 +15°C° 0 mm 5 mps 752 mmHg 55%
    16:00 +14°C° 0 mm 4 mps 752 mmHg 58%
    17:00 +14°C° 0 mm 4 mps 752 mmHg 60%
    18:00 +13°C° 0 mm 3 mps 753 mmHg 65%
    19:00 +11°C° 0 mm 3 mps 753 mmHg 70%
    20:00 +10°C° 0 mm 2 mps 753 mmHg 75%
    21:00 +10°C° 0 mm 2 mps 753 mmHg 75%
    22:00 +10°C° 0 mm 2 mps 753 mmHg 76%
    23:00 +10°C° 0 mm 2 mps 753 mmHg 76%

    14 April, Tuesday

    Time Temperature Precipitation Wind Pressure Humidity
    00:00 +10°C° 0 mm 2 mps 753 mmHg 76%
    01:00 +10°C° 0 mm 3 mps 752 mmHg 75%
    02:00 +11°C° 0 mm 3 mps 752 mmHg 75%
    03:00 +11°C° 0.1 mm 3 mps 752 mmHg 75%
    04:00 +11°C° 0.1 mm 4 mps 752 mmHg 75%
    05:00 +11°C° 0.1 mm 4 mps 752 mmHg 75%
    06:00 +12°C° 0.1 mm 5 mps 752 mmHg 70%
    07:00 +13°C° 0.1 mm 5 mps 752 mmHg 66%
    08:00 +14°C° 0.1 mm 6 mps 752 mmHg 61%
    09:00 +14°C° 0 mm 6 mps 752 mmHg 59%
    10:00 +15°C° 0 mm 6 mps 752 mmHg 58%
    11:00 +16°C° 0 mm 7 mps 752 mmHg 56%
    12:00 +16°C° 0.3 mm 7 mps 751 mmHg 58%
    13:00 +16°C° 0.3 mm 7 mps 751 mmHg 61%
    14:00 +16°C° 0.3 mm 7 mps 750 mmHg 63%
    15:00 +16°C° 0.1 mm 6 mps 750 mmHg 63%
    16:00 +15°C° 0.1 mm 6 mps 750 mmHg 63%
    17:00 +15°C° 0.1 mm 6 mps 750 mmHg 63%
    18:00 +14°C° 0.1 mm 6 mps 750 mmHg 68%
    19:00 +13°C° 0.1 mm 6 mps 750 mmHg 74%
    20:00 +12°C° 0.1 mm 5 mps 750 mmHg 79%
    21:00 +12°C° 0.1 mm 5 mps 750 mmHg 80%
    22:00 +11°C° 0.1 mm 6 mps 751 mmHg 80%
    23:00 +11°C° 0.1 mm 6 mps 751 mmHg 81%
    Show more